Theta_e
302 302 302 301 301 301 301 301 302 302 302 303 306 306 307 310 309 309 309 309 309 309 309 309 309 309 310 310 308 308 314 313 310 310 310 307 309 309 308 309 310 311 310 311 310
302 302 302 301 301 301 301 301 301 302 302 303 306 306 307 309 310 309 309 308 309 309 309 308 309 309 310 309 309 311 313 310 308 308 309 308 310 310 311 311 312 310 310 310 311
302 302 302 301 301 301 301 301 301 302 302 303 306 307 307 309 310 309 309 308 309 309 309 307 309 309 310 309 309 309 312 309 308 307 308 310 310 310 311 313 311 309 308 311 312
302 302 302 301 301 301 301 301 301 301 303 303 305 307 308 309 315 309 309 308 308 309 308 308 308 310 311 311 308 310 308 309 310 309 309 310 309 311 311 311 310 307 308 311 312
306 303 302 301 301 301 300 300 301 301 303 304 305 306 307 309 309 309 308 308 308 309 308 308 308 309 312 309 310 311 309 309 309 308 309 309 311 311 311 309 308 305 310 311 311
308 307 302 301 301 301 300 300 300 302 303 306 306 306 309 310 309 309 308 308 308 308 308 309 309 308 308 308 311 309 310 310 309 309 309 310 311 310 310 309 306 305 309 309 310
311 308 305 302 301 301 300 300 300 302 303 306 307 307 309 308 308 309 308 308 309 309 308 308 308 309 309 309 308 309 311 310 310 310 310 309 311 312 309 309 306 305 307 308 309
313 311 307 303 301 300 300 300 300 302 303 305 306 306 307 308 308 309 308 309 309 310 310 309 309 308 309 308 309 311 311 314 310 310 309 309 313 310 309 309 306 305 305 306 309
318 313 310 306 301 300 300 300 300 302 303 304 305 306 307 307 308 308 309 309 310 311 311 311 310 309 309 314 314 311 314 313 311 309 310 311 314 310 309 309 306 305 305 305 307
319 319 311 309 302 300 299 299 300 302 304 304 305 307 306 306 307 308 309 310 311 310 309 307 308 313 311 314 317 312 311 308 309 310 310 312 314 311 309 310 307 305 304 304 304
317 315 312 310 305 300 299 299 301 303 304 306 306 307 306 306 307 308 308 310 311 310 312 305 311 314 312 307 304 307 311 314 308 309 309 312 312 312 310 311 310 306 304 304 302
318 317 315 309 307 300 299 300 303 305 305 304 306 306 306 307 307 308 308 309 310 312 306 309 311 307 306 307 308 309 312 312 308 305 309 309 309 309 309 311 310 307 304 302 301
318 317 319 311 306 300 299 299 303 306 306 303 304 305 306 306 306 308 309 308 310 310 307 310 309 306 309 309 310 309 310 308 310 308 309 308 313 311 310 310 309 308 303 301 300
318 318 317 318 312 302 299 299 303 305 318 310 304 304 305 307 307 307 309 308 308 309 309 310 307 309 308 308 308 311 308 308 310 310 313 306 320 311 309 310 309 309 303 302 300
317 319 316 317 315 317 305 299 302 308 329 308 302 303 305 305 306 307 307 308 309 307 307 309 309 310 309 307 306 310 308 310 310 312 310 307 309 312 307 310 311 308 304 301 300
318 316 316 315 313 312 310 299 304 319 320 305 302 305 305 304 305 306 306 306 305 307 307 308 305 307 307 305 306 307 310 309 307 309 317 307 307 310 309 310 310 307 304 301 300
318 319 317 316 314 300 299 301 312 319 305 306 304 305 305 306 306 307 308 308 312 314 313 307 307 304 304 308 306 307 312 315 320 320 318 305 307 310 306 307 311 307 304 302 300
317 318 317 315 312 300 300 307 311 311 310 301 303 304 306 305 306 306 308 310 306 307 309 311 310 306 304 306 309 309 309 316 320 314 310 303 308 310 305 305 307 307 303 302 301
316 317 316 312 305 301 302 306 311 309 307 304 304 306 306 304 306 306 309 310 309 305 314 308 308 304 304 305 306 307 307 304 307 300 311 310 309 307 306 308 308 308 305 303 302
314 309 309 310 304 301 302 306 306 304 302 304 312 307 309 306 307 307 307 308 307 304 303 306 309 303 304 304 305 306 304 309 309 318 317 310 308 313 306 307 309 309 308 305 303
313 307 306 305 299 302 306 308 301 302 303 305 308 305 306 307 308 307 308 305 303 303 303 305 309 304 304 306 308 306 307 305 306 306 313 312 314 309 308 308 308 309 309 308 304
309 303 301 301 300 300 305 301 300 300 300 301 303 303 305 304 306 308 307 304 302 303 306 304 307 308 306 302 302 303 306 307 313 309 305 307 313 304 304 304 306 308 308 308 306
305 297 299 299 301 302 296 299 299 300 301 302 303 302 301 303 306 306 305 300 301 304 306 304 309 309 309 305 302 305 305 304 304 305 307 315 314 302 301 303 304 305 304 307 308
302 299 296 297 299 303 300 302 302 298 301 301 301 301 301 301 299 304 303 301 301 302 303 303 305 314 315 312 307 306 305 305 307 314 309 309 312 306 304 305 305 304 305 305 307
300 300 299 299 300 303 302 301 302 301 298 300 300 303 303 303 302 303 301 301 302 303 301 304 310 303 301 301 303 305 306 305 305 308 314 312 309 311 308 306 306 305 305 306 306
300 299 298 300 302 302 302 301 302 301 301 301 303 302 302 305 306 305 302 303 306 302 303 299 305 298 299 297 299 303 304 306 305 305 305 304 307 307 305 303 304 303 304 305 306
300 302 301 301 303 302 304 305 302 303 299 303 302 302 303 302 300 299 300 301 303 304 303 302 299 308 315 294 300 311 305 305 306 305 307 307 310 304 303 303 304 304 304 305 305
Wind_Speed
11 9 7 7 6 5 4 5 4 3 2 2 2 1 2 3 7 3 4 3 3 3 3 5 8 9 7 6 5 3 2 4 4 5 6 4 4 2 3 4 5 4 10 16 24
11 11 9 8 7 6 5 4 4 3 2 2 1 1 2 3 3 6 3 4 3 3 4 6 8 8 5 4 5 4 2 3 3 4 5 5 2 1 2 3 5 11 14 19 20
13 11 10 9 8 6 5 5 3 3 3 2 1 1 1 3 2 2 4 3 2 3 5 7 9 5 6 5 5 5 3 7 4 4 5 5 3 1 5 2 6 19 23 21 19
13 12 10 9 9 8 6 5 4 3 3 2 2 1 0 2 1 1 3 3 2 3 4 8 7 4 4 4 3 7 5 4 7 6 4 4 3 2 3 4 10 15 18 17 19
11 11 11 10 10 9 8 7 6 4 4 3 2 2 2 2 2 1 3 4 1 3 5 8 7 6 5 8 11 11 8 7 7 6 3 3 4 3 4 5 11 14 13 15 17
14 11 10 11 11 10 9 7 6 6 4 3 2 2 3 3 3 2 3 4 3 5 6 8 6 14 12 5 3 9 12 10 4 3 1 2 4 3 2 7 10 13 14 15 16
14 15 11 9 11 11 9 8 7 6 5 4 3 2 2 4 5 4 5 5 9 12 17 19 16 3 9 11 10 13 9 5 3 0 1 2 4 5 4 7 9 13 15 17 17
15 17 14 10 10 11 10 8 8 7 6 5 4 2 2 5 6 6 6 9 11 11 14 15 14 16 6 16 5 4 3 4 3 2 2 3 2 4 4 8 9 13 15 18 19
18 18 16 12 10 10 10 8 8 7 6 5 4 3 2 6 6 8 8 10 10 10 11 10 7 8 7 6 4 2 3 2 4 2 2 4 2 3 4 7 8 11 14 17 20
20 23 18 13 11 10 8 8 7 7 6 5 6 2 5 6 9 9 10 12 6 9 7 3 5 3 3 3 3 6 4 3 2 1 3 4 7 3 6 6 6 10 12 15 18
20 17 20 16 11 10 9 5 4 5 9 5 4 3 8 8 10 9 11 8 8 2 2 2 3 4 4 1 2 6 4 3 2 1 4 4 9 8 7 6 5 7 11 14 18
21 15 14 18 12 12 13 9 8 3 2 9 6 5 9 10 5 10 12 5 4 3 2 2 4 5 7 3 5 5 5 2 2 2 2 4 12 8 6 5 3 6 9 12 17
21 21 16 14 14 14 16 16 7 5 2 4 8 7 7 10 4 11 13 6 2 4 1 2 7 9 3 4 5 3 1 3 1 1 1 8 4 3 2 5 5 4 5 8 12
29 26 24 23 13 11 17 15 7 3 3 4 6 6 10 8 3 10 12 6 3 4 6 6 6 5 5 2 2 3 2 5 3 2 2 2 2 4 3 6 7 6 3 4 8
29 31 33 31 22 23 14 15 11 5 3 5 5 6 10 6 8 6 9 5 6 5 4 4 9 7 3 1 1 3 4 3 2 1 3 3 3 2 1 3 5 7 5 1 6
33 35 37 34 28 21 21 17 14 3 9 4 4 6 7 3 3 7 4 6 10 4 9 4 1 1 3 4 2 10 5 3 1 1 2 2 3 4 4 4 4 4 5 2 3
40 38 41 36 33 23 27 23 3 6 2 5 5 6 5 5 5 5 7 8 6 6 3 3 2 2 3 6 4 2 4 2 2 2 2 2 3 5 5 5 3 5 5 3 4
37 34 40 43 32 32 33 3 7 3 6 2 3 8 8 7 3 5 9 10 7 2 6 8 6 10 5 2 3 7 3 2 4 3 1 2 5 1 2 2 5 2 2 3 1
33 45 50 47 37 42 32 8 10 6 8 12 4 5 5 4 4 7 10 8 11 13 5 6 3 2 1 1 2 6 6 2 5 1 2 2 4 5 4 7 7 11 13 12 11
42 41 39 47 40 37 13 13 5 4 9 5 9 6 10 10 9 10 12 7 6 12 3 8 6 0 2 2 2 3 3 3 1 4 4 3 4 3 8 13 12 13 15 12 11
47 19 20 43 46 27 6 8 6 9 9 8 7 5 6 8 7 8 9 1 5 10 3 6 4 4 3 8 10 5 3 2 1 1 2 1 3 4 8 12 14 18 18 16 16
32 5 30 45 12 8 6 7 7 7 6 3 3 3 8 9 11 9 11 3 12 17 10 5 6 5 3 1 2 1 4 6 4 5 1 1 3 2 4 5 6 11 15 17 17
22 12 34 52 7 10 1 4 5 6 6 8 6 3 2 8 4 7 7 1 10 9 11 10 3 5 2 1 1 6 7 4 2 1 6 4 2 0 5 6 8 8 9 17 20
12 5 10 22 6 13 8 8 9 8 5 6 6 6 4 2 2 6 5 1 7 4 0 5 3 5 8 4 6 8 11 14 7 3 7 6 2 7 10 11 12 13 13 15 21
11 5 14 12 14 16 15 13 16 7 3 7 2 6 6 4 4 4 2 3 1 4 2 3 5 3 2 2 1 4 11 19 16 6 8 3 11 9 14 15 19 17 16 17 21
11 6 14 13 27 13 18 15 24 12 14 7 5 11 6 5 4 8 8 5 5 4 6 2 3 2 1 2 2 3 7 16 15 8 12 6 8 10 2 9 14 19 21 23 23
18 14 13 20 17 15 16 22 27 22 8 17 15 8 8 5 2 4 5 5 4 9 7 7 7 4 4 1 0 5 13 16 12 13 12 11 9 7 7 11 18 22 25 24 24
Wind_Direction
264 258 260 269 283 295 307 316 320 330 338 358 10 113 150 99 69 109 63 73 98 110 117 129 130 140 136 89 74 90 122 127 136 160 122 158 188 185 273 276 303 277 305 304 317
262 265 263 259 266 280 288 293 303 309 314 323 353 117 164 160 122 72 61 51 72 116 122 144 147 144 83 67 30 37 77 99 86 102 137 151 180 205 289 278 315 305 317 319 324
265 262 262 263 263 263 271 275 277 288 290 294 270 158 143 166 151 39 36 38 53 125 145 140 149 121 78 57 30 41 92 135 132 134 141 143 180 180 324 266 328 320 322 328 333
269 266 260 256 259 262 261 261 263 266 274 275 269 234 164 154 213 80 29 32 80 136 159 152 149 84 75 84 70 105 104 139 150 155 150 174 144 214 251 315 318 319 316 323 332
282 276 266 255 253 260 259 258 256 254 258 259 243 232 192 134 141 110 42 38 79 150 150 159 145 118 108 111 100 95 134 122 132 137 130 149 191 247 257 305 327 332 326 328 335
285 286 269 263 254 256 258 255 254 253 247 248 233 202 180 191 167 136 64 59 75 175 175 157 142 118 97 76 47 121 127 120 139 149 159 229 206 267 255 320 336 340 336 338 341
278 284 278 261 259 255 252 255 250 251 248 230 217 191 178 179 173 144 100 110 105 106 114 122 126 102 115 108 111 119 106 117 87 357 239 247 222 237 297 327 341 344 343 345 351
274 283 279 263 247 254 251 248 252 244 244 231 230 211 173 162 158 150 128 115 111 115 120 116 111 104 81 122 86 107 140 178 126 30 174 257 229 224 299 319 353 348 347 351 356
265 278 279 275 251 238 250 246 248 247 236 233 228 198 173 169 163 156 151 138 128 124 118 109 103 89 117 145 116 73 178 208 156 79 262 238 265 185 285 305 351 344 345 352 355
243 261 272 271 254 236 231 240 241 241 226 226 217 198 193 180 161 158 156 151 137 131 113 103 81 114 133 220 190 169 180 190 196 173 244 244 262 262 263 289 340 341 342 349 354
240 249 266 269 247 229 215 200 223 238 211 208 179 164 152 161 153 160 163 163 147 134 151 27 144 181 170 321 80 106 116 117 190 52 297 274 288 283 265 281 310 335 343 350 353
237 230 254 270 255 214 207 197 224 200 192 214 208 192 168 171 132 159 167 175 176 148 154 156 121 123 110 120 111 99 128 114 287 282 307 338 295 274 251 260 275 314 339 346 353
227 225 238 240 253 219 212 213 229 226 252 212 200 194 179 181 163 164 172 161 124 131 181 179 119 141 131 147 129 69 168 161 79 300 165 310 265 272 195 245 250 256 319 341 354
228 225 226 223 231 235 226 210 196 184 38 191 200 196 184 167 178 168 171 155 92 136 117 88 147 144 142 167 258 154 106 116 128 213 253 317 283 234 224 275 235 222 214 323 350
229 230 222 228 218 222 241 202 183 174 243 112 154 163 167 172 132 160 164 128 147 135 181 133 164 152 167 89 188 111 132 96 102 119 293 178 263 152 336 248 199 192 180 264 2
235 229 222 215 215 217 192 182 166 60 238 154 131 165 152 145 128 133 139 116 121 92 58 91 94 156 89 79 76 138 116 89 97 303 261 77 317 171 200 192 180 185 181 175 28
232 232 221 224 214 174 165 166 90 217 40 183 176 176 169 148 143 176 166 161 159 127 162 128 157 134 154 115 109 210 180 130 217 213 253 81 261 269 212 198 176 173 168 131 52
240 237 223 223 202 163 163 118 204 206 179 120 127 135 179 151 179 158 160 186 222 199 139 162 198 184 169 236 188 184 261 233 218 206 101 114 234 188 207 178 199 194 150 168 111
240 226 213 206 185 166 159 188 212 169 158 148 133 143 195 199 168 169 200 205 201 202 155 154 112 75 77 136 239 157 216 47 105 69 276 197 253 234 215 230 206 209 204 192 179
204 185 196 195 174 167 152 211 220 195 126 166 185 186 174 174 171 192 178 195 195 191 255 171 113 261 116 165 79 254 135 146 235 168 237 206 265 257 207 224 208 216 219 211 196
195 181 193 174 159 161 191 205 195 211 149 165 181 142 187 174 185 197 200 211 180 164 172 148 117 150 166 210 179 156 192 219 317 272 223 231 226 202 200 199 203 206 210 202 202
182 145 172 166 151 210 185 192 186 161 194 129 122 106 176 165 178 210 213 263 167 152 170 193 111 145 188 41 350 301 210 198 224 187 211 320 266 148 197 199 225 210 207 205 201
158 121 159 163 160 192 130 183 186 152 183 171 144 175 160 174 166 206 202 12 172 171 157 182 160 117 117 194 230 221 195 198 100 116 190 176 198 168 208 200 207 233 223 211 204
157 142 158 191 203 183 166 187 189 205 178 163 122 122 132 159 77 189 178 148 203 204 317 161 146 178 191 145 136 193 188 190 196 180 160 228 259 200 218 215 210 215 215 217 211
191 199 180 181 216 192 170 173 182 170 240 175 80 170 158 141 136 200 159 125 133 208 180 181 175 119 78 54 183 197 184 186 199 218 197 193 212 216 204 207 204 207 203 209 212
180 161 191 189 177 175 180 189 193 182 168 202 159 165 150 156 175 180 155 190 185 169 181 182 166 136 74 349 6 245 199 201 216 226 262 260 268 230 187 189 201 203 201 205 211
214 204 182 164 175 173 194 185 202 194 204 211 165 134 150 131 81 2 197 139 160 165 169 157 144 162 210 355 228 272 213 190 207 212 213 219 231 161 188 209 203 201 206 222 227